Snowfall_Accumulation
0.4 0.1 0.0 0.1 0.0 0.0 0.0 0.2 0.8 1.1 1.7 1.9 1.8 2.1 2.0 1.9 1.5 1.0 1.2 1.2 1.7 2.3 2.7 3.3 2.7 2.7 2.6 2.8 1.8 1.9 2.3 2.8 3.8 1.5 0.5 0.3 0.2 0.1 0.0 0.0 0.0 0.0 0.0
1.6 1.2 1.0 1.0 0.7 0.7 0.6 0.6 1.0 1.6 2.0 2.8 2.9 2.3 2.1 2.2 2.4 1.5 0.9 0.6 0.8 1.1 1.8 2.6 2.4 2.1 3.1 2.9 3.0 3.1 3.2 2.6 3.7 5.2 3.5 3.4 2.4 0.4 0.0 0.0 0.1 0.1 0.2
2.7 2.5 1.9 1.5 1.1 1.1 1.9 2.6 1.1 1.7 1.7 2.4 2.1 2.1 2.5 2.2 2.0 1.1 0.7 0.8 1.4 2.2 3.0 3.5 3.5 2.0 3.1 4.6 5.0 3.0 4.3 2.9 3.9 3.3 5.4 3.5 2.9 1.3 0.3 0.0 0.1 0.4 0.2
3.6 3.4 3.7 3.7 2.4 2.1 1.9 2.2 2.3 3.7 3.9 4.3 3.9 2.9 3.1 2.4 2.3 0.8 0.6 0.7 0.7 1.6 1.9 2.3 2.3 2.6 3.9 1.9 4.8 6.0 6.8 6.8 8.2 9.4 13.5 14.1 9.4 8.7 1.6 3.8 0.2 0.4 1.6
3.9 2.8 2.3 2.6 4.4 2.8 2.6 3.3 4.2 3.7 3.7 4.0 3.5 3.6 5.3 5.1 5.0 4.4 2.9 2.2 2.0 1.0 1.5 0.4 1.5 1.2 0.9 0.9 2.4 2.7 3.5 5.1 8.3 11.8 13.7 13.3 13.5 11.1 10.3 6.3 6.7 4.5 2.4
0.8 1.0 1.4 0.7 1.6 2.5 2.2 2.5 2.2 1.6 3.2 4.6 7.1 5.8 10.0 8.3 6.2 4.9 2.8 3.4 2.8 2.9 2.7 2.2 1.3 0.9 0.9 0.4 0.7 1.0 1.5 3.8 7.7 6.7 7.7 8.4 7.9 7.7 6.9 7.6 7.6 8.5 10.8
0.1 0.2 0.2 0.4 0.5 0.7 1.3 1.1 1.6 2.4 1.7 6.2 8.7 9.9 5.5 8.3 5.6 5.3 5.2 4.5 4.1 3.7 3.5 2.7 2.7 3.2 2.0 0.9 1.0 0.8 0.6 1.0 2.5 4.1 6.4 5.5 4.8 3.7 3.1 5.3 4.3 4.9 7.8
0.1 0.3 0.4 0.7 0.9 1.9 1.6 2.0 2.1 2.0 2.2 2.3 1.2 2.3 2.9 3.3 3.2 7.3 4.8 9.8 6.6 5.5 4.1 3.8 4.0 3.8 3.3 2.8 3.8 3.6 2.0 1.2 2.2 2.3 2.2 2.8 3.6 2.3 1.5 1.4 2.1 4.3 3.2
0.4 1.0 1.1 1.1 1.5 1.6 1.7 1.6 1.4 2.2 1.9 2.0 0.9 0.2 0.1 0.4 0.4 0.2 0.8 2.7 1.9 3.2 5.5 4.8 4.2 4.5 4.1 4.4 4.4 5.3 4.8 4.6 2.6 2.1 1.9 1.6 2.3 0.8 0.5 3.1 7.0 6.4 8.9
1.2 1.5 1.4 1.9 2.0 2.3 2.7 2.7 2.2 1.6 1.3 1.7 3.3 0.2 0.4 1.3 0.6 0.5 0.4 0.2 0.5 1.1 1.6 1.9 3.5 4.4 4.4 2.5 6.1 6.1 7.4 5.0 6.0 6.9 5.4 1.7 1.0 2.3 1.6 3.4 6.6 13.6 11.2
3.6 3.1 1.2 1.3 1.7 1.7 1.7 1.3 0.9 0.9 1.6 3.0 2.7 0.6 1.0 1.3 1.9 1.5 0.4 0.3 1.4 1.6 0.9 0.9 1.4 3.0 2.5 1.9 2.3 3.6 5.3 4.9 6.2 8.6 9.5 8.1 10.5 5.5 4.9 6.1 6.8 9.9 12.7
8.3 9.6 5.8 3.1 4.6 3.2 1.1 1.1 0.8 0.9 1.8 2.5 2.8 2.6 2.8 1.8 1.2 0.5 1.4 1.3 0.8 2.9 2.5 2.4 2.9 1.2 1.5 0.9 1.3 3.9 4.6 5.9 7.6 11.3 12.6 13.4 15.4 14.5 13.6 11.9 10.2 9.6 8.7
10.7 14.1 8.7 9.8 4.6 3.2 0.6 0.5 0.7 0.6 1.1 0.8 1.8 1.5 2.2 2.4 1.9 1.7 1.1 1.0 1.2 2.5 3.7 4.1 2.8 4.6 3.7 6.2 7.9 13.6 13.1 17.6 22.2 23.6 21.6 19.0 14.3 10.1 6.3 5.4 4.2 2.8 3.7
12.8 12.3 12.3 8.7 9.6 9.0 4.1 5.0 2.4 2.3 1.2 1.4 1.1 2.8 1.0 1.2 1.6 1.8 3.5 2.6 3.4 4.6 10.2 16.1 18.3 25.6 23.8 27.0 27.3 26.2 24.9 23.5 21.9 20.1 15.8 10.5 7.5 6.1 6.2 4.6 7.8 5.8 6.0
6.0 4.9 5.5 7.3 8.6 9.5 13.5 17.2 16.5 17.1 6.5 7.7 8.8 5.0 6.9 7.5 6.6 13.4 17.0 12.5 21.4 18.0 17.7 25.9 25.8 23.3 21.0 18.3 15.1 12.2 9.9 7.8 8.3 7.4 7.7 7.0 4.4 4.9 5.0 3.2 4.4 4.9 7.0
2.7 2.5 3.3 3.5 4.9 6.9 10.0 13.1 14.1 18.4 18.1 22.1 18.0 24.0 26.6 22.2 22.4 18.4 19.2 20.8 18.9 19.3 19.4 17.1 14.8 13.0 10.6 8.1 8.2 4.7 3.8 4.9 3.9 6.9 7.2 5.5 6.1 6.3 6.8 4.9 4.9 6.0 6.2
1.6 1.3 3.1 3.2 4.2 7.9 8.8 11.2 15.1 24.2 26.9 30.5 30.2 29.7 29.6 31.5 28.1 30.0 30.4 28.2 26.2 20.7 23.2 19.0 18.5 15.2 14.2 11.9 11.1 8.5 10.1 7.8 8.5 10.1 10.5 11.8 11.3 10.2 11.3 9.2 8.1 5.8 5.2
1.0 5.0 9.9 14.6 17.1 17.2 19.1 22.6 23.4 25.1 25.0 26.8 25.4 23.9 21.7 21.8 21.4 21.7 23.2 22.6 29.4 25.9 24.4 24.4 25.3 24.6 23.8 22.7 18.7 18.6 17.1 14.0 13.9 14.3 13.1 13.0 14.2 14.5 13.7 11.9 12.7 11.6 9.6
7.7 10.0 11.9 11.8 11.4 10.6 9.8 11.7 12.6 13.0 14.7 15.4 14.5 12.9 13.0 11.9 11.2 11.7 11.0 13.4 17.6 19.8 22.3 21.0 22.2 22.4 22.8 22.7 23.5 23.6 24.7 25.0 23.3 22.8 21.8 22.3 22.2 21.6 19.6 17.6 16.8 14.0 12.2
9.0 10.3 8.9 8.5 9.2 9.3 7.8 6.9 7.0 6.2 6.6 6.7 7.5 9.1 7.5 6.0 5.0 6.8 8.4 11.3 12.2 13.0 15.6 17.2 17.6 16.9 17.7 19.6 20.5 20.9 20.4 20.6 20.8 21.6 22.2 21.1 22.4 23.0 24.3 22.1 20.5 21.0 16.7
10.0 9.3 7.6 6.3 6.0 5.6 4.9 4.7 4.5 5.0 5.0 4.0 4.0 3.3 3.6 4.0 4.8 5.4 7.1 8.4 8.9 10.6 12.5 13.2 14.2 14.1 14.4 15.6 14.9 16.2 16.3 16.4 16.0 17.8 18.9 19.2 19.8 23.0 19.2 21.5 20.6 17.9 15.6
6.7 5.9 5.0 5.2 4.2 3.9 3.2 2.7 2.7 3.5 3.1 3.7 4.3 4.0 6.0 5.5 5.0 4.9 4.8 5.5 5.8 6.2 8.6 11.5 12.6 13.8 14.5 16.4 16.0 16.3 14.5 13.8 13.6 14.6 15.2 16.4 17.5 18.2 18.7 18.9 18.4 18.6 16.1
4.0 4.1 3.4 3.6 3.3 2.7 3.1 2.2 3.8 4.1 4.2 3.7 3.9 5.3 5.4 5.4 5.1 5.2 5.3 5.0 4.7 5.4 4.7 8.2 9.1 8.7 9.2 11.7 12.3 16.1 16.9 14.9 14.8 16.7 18.3 15.0 15.4 17.3 17.6 17.9 16.7 18.5 17.2
1.9 2.3 2.5 1.9 2.6 2.1 2.8 3.1 3.4 5.1 6.2 5.2 4.6 4.4 5.4 5.9 6.0 6.2 5.5 5.4 5.4 6.0 6.9 7.9 9.0 10.0 9.9 8.4 9.6 11.1 12.8 14.2 14.5 15.5 19.4 17.9 14.0 14.1 16.2 16.2 15.4 15.9 16.4
1.4 1.9 2.3 2.3 3.0 4.4 4.8 5.0 4.5 2.7 4.0 4.3 4.1 4.2 3.4 4.3 5.0 6.9 7.0 6.7 6.7 8.5 9.4 9.6 9.7 9.8 10.8 11.0 12.5 12.2 11.7 13.1 15.8 17.4 18.0 17.0 15.0 12.4 15.2 16.0 14.5 15.1 14.8
1.6 2.2 2.8 3.1 3.2 4.7 4.9 5.1 4.4 3.0 3.3 3.6 4.1 4.0 4.6 4.9 6.0 7.4 7.6 7.5 8.0 10.2 10.9 11.7 12.4 11.1 10.5 10.7 11.5 12.0 11.9 12.3 13.9 16.9 19.0 17.6 15.5 13.6 13.7 14.3 14.0 15.4 13.5